Flag for Poland Weather past 2 weeks in Płock, Poland

Now
41 °F

Quite cool.


Feels Like: 38 °F
Forecast: 39 / 46 °F
Wind: 6 mph from West

Location: Plock

Current Time: Mar 31, 2015 at 1:08:31 AM

Latest Report: Mar 31, 2015 at 12:00 AM


Visibility: 17 mi

Pressure: 29.47 "Hg

Humidity: 82%

Dew point: 36 °F

Location of PłockLocation

Historic Weather in Płock — Graph

°F

Płock temperature yesterday

Maximum temperature yesterday: 48 °F (at 2:00 PM)
Minimum temperature yesterday: 40 °F (at 9:00 PM)
Average temperature yesterday: 45 °F

Past Weeks' High & Low Weather Summary

 TemperatureHumidityPressure
High61 °F (Mar 25, 4:00 PM)100% (Mar 29, 9:00 AM)30.73 "Hg (Mar 29, 9:00 AM)
Low24 °F (Mar 23, 5:00 AM)26% (Mar 18, 1:00 PM)29.09 "Hg (Mar 30, 5:00 AM)
Average43 °F68%30.07 "Hg
* Reported Mar 15 11:00 PM — Mar 30 11:00 PM, Płock, Weather by CustomWeather, © 2015

Note: Actual official high and low records may vary slightly from our data, if they occured in-between our weather recording intervals... More about our weather records

Advertising

Płock weather history for previous 24 hours

 ConditionsComfort  
Time TempWeatherWind HumidityBarometerVisibility
11:00 PM
Mon, Mar 30
41 °FQuite cool.7 mph84%29.44 "Hg22 mi
10:00 PM41 °FQuite cool.7 mph85%29.41 "Hg19 mi
9:00 PM40 °FQuite cool.7 mph84%29.38 "Hg31 mi
8:00 PM42 °FQuite cool.7 mph75%29.35 "Hg31 mi
7:00 PM42 °FQuite cool.7 mph85%29.32 "Hg22 mi
6:00 PM46 °FCool.6 mph70%29.26 "Hg28 mi
5:00 PM45 °FRain showers. Cloudy.6 mph81%29.26 "Hg9 mi
4:00 PM44 °FQuite cool.9 mph82%29.23 "Hg22 mi
3:00 PM44 °FRain showers. Cloudy.12 mph71%29.21 "Hg5 mi
2:00 PM48 °FCool.10 mph59%29.18 "Hg28 mi
1:00 PM48 °FCool.10 mph66%29.18 "Hg22 mi
12:00 PM46 °FSprinkles. Cloudy.10 mph70%29.15 "Hg25 mi
11:00 AM45 °FRain showers. Cloudy.9 mph72%29.15 "Hg19 mi
10:00 AM46 °FCool.9 mph72%29.12 "Hg28 mi
9:00 AM45 °FCool.12 mph75%29.12 "Hg31 mi
8:00 AM44 °FQuite cool.8 mph82%29.12 "Hg31 mi
7:00 AM45 °FRain showers. Cloudy.8 mph87%29.09 "Hg5 mi
6:00 AM47 °FRain showers. Overcast.8 mph89%29.09 "Hg11 mi
5:00 AM46 °FRain showers. Overcast.6 mph93%29.09 "Hg6 mi
4:00 AM46 °FRain showers. Overcast.6 mph93%29.15 "Hg5 mi
3:00 AM46 °FCool.6 mph93%29.18 "Hg3 mi
2:00 AM46 °FRain showers. Overcast.6 mph94%29.23 "Hg3 mi
1:00 AM46 °FDrizzle. Overcast.6 mph94%29.26 "Hg3 mi
Weather by CustomWeather, © 2015

See weather overviewHow to use our weather pages